Powrót do katalogu

VIASAT 2

AktywnyŁącznośćGEO
NORAD 42740·PAYLOAD·🇺🇸 United States

Wystrzelony Jun 1, 2017 z Guiana Space Centre

Loading…

TLE

ŚwieżeSource: Space-Track

Epoka: Sep 14, 2026, 13:28 UTC

1 42740U 17029A   26257.56132095 -.00000273  00000-0  00000-0 0  9992
2 42740   0.0200 241.2930 0000903 263.0784 341.3043  1.00272162 34099

Śledź VIASAT 2 w czasie rzeczywistym z AllMySat

Download on the App Store